EHI
0 0 0 0 0 0 0 0 0 0 0 0 0 0 0 0 0 0 0 0 0 0 0 0 0 0 0 0 0 0 0 0 0 0 0 0 0 0 0 0 0 0 0
0 0 0 0 0 0 0 0 0 0 0 0 0 0 0 0 0 0 0 0 0 0 0 0 0 0 0 0 0 0 0 0 0 0 0 0 0 0 0 0 0 0 0
0 0 0 0 0 0 0 0 0 0 0 0 0 0 0 0 0 0 0 0 0 0 0 0 0 0 0 0 0 0 0 0 0 0 0 0 0 0 0 0 0 0 0
0 0 0 0 0 0 0 0 0 0 0 0 0 0 0 0 0 0 0 0 0 0 0 0 0 0 0 0 0 0 0 0 0 0 0 0 0 0 0 0 0 0 0
0 0 0 0 0 0 0 0 0 0 0 0 0 0 0 0 0 0 0 0 0 0 0 0 0 0 0 0 0 0 0 0 0 0 0 0 0 0 0 0 0 0 0
0 0 0 0 0 0 0 0 0 0 0 0 0 0 0 0 0 0 0 0 0 0 0 0 0 0 0 0 0 0 0 0 0 0 0 0 0 0 0 0 0 0 0
0 0 0 0 0 0 0 0 0 0 0 0 0 0 0 0 0 0 0 0 0 0 0 0 0 0 0 0 0 0 0 0 0 0 0 0 0 0 0 0 0 0 0
0 0 0 0 0 0 0 0 0 0 0 0 0 0 0 0 0 0 0 0 0 0 0 0 0 0 0 0 0 0 0 0 0 0 0 0 0 0 0 0 0 0 0
0 0 0 0 0 0 0 0 0 0 0 0 0 0 0 0 0 0 0 0 0 0 0 0 0 0 0 0 0 0 0 0 0 0 0 0 0 0 0 0 0 0 0
0 0 0 0 0 0 0 0 0 0 0 0 0 0 0 0 0 0 0 0 0 0 0 0 0 0 0 0 0 0 0 0 0 0 0 0 0 0 0 0 0 0 0
0 0 0 0 0 0 0 0 0 0 0 0 0 0 0 0 0 0 0 0 0 0 0 0 0 0 0 0 0 0 0 0 0 0 0 0 0 0 0 0 0 0 0
0 0 0 0 0 0 0 0 0 0 0 0 0 0 0 0 0 0 0 0 0 0 0 0 0 0 0 0 0 0 0 0 0 0 0 0 0 0 0 0 0 0 0
0 0 0 0 0 0 0 0 0 0 0 0 0 0 0 0 0 0 0 0 0 0 0 0 0 0 0 0 0 0 0 0 0 0 0 0 0 0 0 0 0 0 0
0 0 0 0 0 0 0 0 0 0 0 0 0 0 0 0 0 0 0 0 0 0 0 0 0 0 0 0 0 0 0 0 0 0 0 0 0 0 0 0 0 0 0
0 0 0 0 0 0 0 0 0 0 0 0 0 0 0 0 0 0 0 0 0 0 0 0 0 0 0 0 0 0 0 0 0 0 0 0 0 0 0 0 0 0 0
0 0 0 0 0 0 0 0 0 0 0 0 0 0 0 0 0 0 0 0 0 0 0 0 0 0 0 0 0 0 0 0 0 0 0 0 0 0 0 0 0 0 0
0 0 0 0 0 0 0 0 0 0 0 0 0 0 0 0 0 0 0 0 0 0 0 0 0 0 0 0 0 0 0 0 0 0 0 0 0 0 0 0 0 0 0
0 0 0 0 0 0 0 0 0 0 0 0 0 0 0 0 0 0 0 0 0 0 0 0 0 0 0 0 0 0 0 0 0 0 0 0 0 0 0 0 0 0 0
0 0 0 0 0 0 0 0 0 0 0 0 0 0 0 0 0 0 0 0 0 0 0 0 0 0 0 0 0 0 0 0 0 0 0 0 0 0 0 0 0 0 0
0 0 0 0 0 0 0 0 0 0 0 0 0 0 0 0 0 0 0 0 0 0 0 0 0 0 0 0 0 0 0 0 0 0 0 0 0 0 0 0 0 0 0
0 0 0 0 0 0 0 0 0 0 0 0 0 0 0 0 0 0 0 0 0 0 0 0 0 0 0 0 0 0 0 0 0 0 0 0 0 0 0 0 0 0 0
0 0 0 0 0 0 0 0 0 0 0 0 0 0 0 0 0 0 0 0 0 0 0 0 0 0 0 0 0 0 0 0 0 0 0 0 0 0 0 0 0 0 0
0 0 0 0 0 0 0 0 0 0 0 0 0 0 0 0 0 0 0 0 0 0 0 0 0 0 0 0 0 0 0 0 0 0 0 0 0 0 0 0 0 0 0
0 0 0 0 0 0 0 0 0 0 0 0 0 0 0 0 0 0 0 0 0 0 0 0 0 0 0 0 0 0 0 0 0 0 0 0 0 0 0 0 0 0 0
0 0 0 0 0 0 0 0 0 0 0 0 0 0 0 0 0 0 0 0 0 0 0 0 0 0 0 0 0 0 0 0 0 0 0 0 0 0 0 0 0 0 0
0 0 0 0 0 0 0 0 0 0 0 0 0 0 0 0 0 0 0 0 0 0 0 0 0 0 0 0 0 0 0 0 0 0 0 0 0 0 0 0 0 0 0
Wind_Speed
8 8 9 9 10 10 10 11 12 12 14 15 17 17 17 15 12 9 9 10 10 10 9 9 10 10 7 7 7 7 7 7 10 9 8 8 10 10 10 9 8 7 6
7 8 9 9 10 10 11 11 12 13 14 15 16 17 17 15 12 10 10 10 9 9 10 9 9 7 8 7 6 6 6 7 8 11 9 8 9 9 9 9 8 6 4
7 7 8 9 10 10 11 11 12 12 13 15 16 16 16 14 12 11 10 10 9 9 9 9 10 9 8 7 7 6 6 7 6 8 9 8 7 7 7 7 7 5 5
7 7 8 9 10 10 10 11 11 12 12 14 15 15 15 14 9 9 10 10 10 10 10 11 10 10 10 9 7 7 7 7 7 6 7 7 6 6 4 4 4 3 3
7 7 8 9 9 9 10 10 11 11 13 13 14 15 15 13 10 9 9 11 11 12 11 12 12 17 20 15 11 10 9 7 6 6 6 6 6 5 4 4 4 4 3
6 7 8 9 9 9 9 10 10 11 11 12 13 14 15 14 22 24 16 10 11 12 12 12 13 13 18 20 22 20 17 11 9 6 6 7 7 7 6 5 5 3 2
6 7 8 8 9 9 10 10 10 10 10 11 12 13 14 18 25 23 24 11 10 10 10 11 12 15 16 7 15 18 16 20 17 9 7 7 8 8 8 7 6 4 3
6 6 7 7 8 9 8 9 9 7 8 8 9 11 12 17 26 22 22 11 8 9 10 11 11 12 15 13 11 11 9 10 14 9 7 7 8 8 7 7 7 6 5
6 7 7 7 7 8 8 8 7 7 7 7 8 10 11 15 24 22 18 7 8 9 10 12 14 10 23 23 13 12 11 10 15 19 17 14 15 15 11 5 5 3 2
6 7 7 6 7 7 7 7 6 7 7 8 9 9 10 11 20 23 17 6 8 8 8 11 18 20 24 24 12 12 13 11 12 12 12 13 10 11 14 7 5 3 2
6 6 6 6 7 7 6 6 7 8 8 8 9 9 8 11 17 21 20 5 7 8 9 9 11 25 25 25 20 13 18 14 10 10 9 8 8 7 7 6 5 4 3
5 6 7 7 7 7 6 7 7 7 7 7 7 8 6 8 13 16 19 16 12 6 8 8 11 24 24 24 19 22 24 18 9 9 9 9 10 10 9 8 7 5 4
5 6 7 7 6 6 6 7 7 6 6 7 6 7 7 7 9 17 15 16 17 7 6 16 19 22 20 15 22 25 19 12 10 10 10 10 9 9 8 8 7 5 3
6 6 6 6 7 6 6 5 6 6 7 7 5 6 7 7 7 6 4 5 10 8 5 11 16 18 15 16 17 14 11 12 11 10 10 9 9 9 9 8 7 7 4
5 6 6 6 6 6 7 5 7 6 9 9 6 6 7 8 11 18 11 6 5 5 5 4 5 7 9 9 9 10 10 11 11 11 10 10 10 10 9 9 8 7 6
5 5 5 5 6 6 7 8 11 12 17 16 15 14 10 15 20 19 18 17 16 15 7 4 5 6 7 8 9 9 9 10 10 10 10 10 10 11 10 9 8 8 7
4 5 5 5 5 6 7 8 9 11 14 15 17 18 18 20 20 19 19 17 16 14 4 4 4 4 5 5 6 6 7 8 8 9 9 10 10 10 9 9 9 8 8
4 6 6 4 4 5 5 6 7 9 10 8 12 18 20 20 19 19 19 13 8 7 3 4 4 4 4 4 4 4 5 6 7 7 8 9 9 9 9 10 9 10 8
3 3 4 3 3 4 5 5 6 7 8 9 8 11 17 18 17 18 16 7 7 7 6 5 4 4 3 3 3 3 4 4 5 6 7 8 8 8 9 9 9 13 10
3 6 5 3 3 4 4 5 5 6 7 7 8 9 10 10 8 10 9 8 7 7 7 6 5 4 3 3 2 2 3 3 4 5 5 6 7 7 8 9 9 8 8
2 3 6 4 3 4 4 4 4 5 6 7 7 10 16 8 8 10 9 9 9 9 9 7 6 5 4 3 2 2 2 2 2 3 4 5 5 6 6 7 8 8 8
2 2 2 2 3 3 3 3 4 5 6 7 7 9 15 8 7 8 9 9 9 9 9 8 7 5 4 3 3 3 2 2 1 1 2 3 4 5 5 6 7 7 7
3 2 2 2 3 5 4 4 4 4 5 6 7 7 8 8 8 9 9 10 10 10 9 9 8 6 5 4 4 4 4 4 3 2 1 1 2 3 4 5 7 7 8
4 4 3 2 2 2 3 4 4 5 5 6 6 7 7 8 8 10 10 10 10 10 10 10 9 10 10 6 4 5 5 5 4 4 4 3 2 2 3 4 5 7 7
5 4 3 3 2 2 3 4 4 5 5 6 6 7 8 8 9 10 10 10 11 12 13 12 10 10 11 10 7 6 10 13 10 7 5 4 4 3 3 3 4 5 6
5 5 4 3 3 3 3 3 4 4 5 6 6 6 7 8 9 10 10 10 12 12 12 11 13 15 15 9 8 9 12 14 15 14 8 5 5 4 3 3 4 5 5
Wind_Direction
322 325 326 323 324 325 325 325 324 322 325 325 326 328 328 325 318 311 304 301 300 301 301 297 296 295 292 285 281 281 278 276 283 289 287 292 292 293 297 296 292 290 289
322 326 326 325 326 327 327 327 327 328 328 329 330 333 335 339 336 329 322 320 315 314 316 316 318 322 321 310 302 299 295 287 285 292 294 293 290 290 287 287 291 286 278
326 327 326 326 328 328 327 328 330 331 331 334 337 339 339 340 346 350 348 349 348 344 343 342 337 337 335 331 323 317 307 303 289 289 293 294 289 289 289 285 282 274 275
331 328 327 326 326 325 327 330 332 334 336 338 339 340 341 342 351 5 7 5 3 1 359 353 347 350 351 342 341 340 326 319 312 302 297 299 297 295 290 296 294 279 276
330 330 327 324 324 326 330 332 333 337 341 339 341 342 343 342 355 30 24 15 8 3 0 355 351 1 4 4 359 357 347 338 334 327 320 321 324 331 328 317 304 298 279
328 325 324 328 329 331 332 334 337 338 337 338 340 341 344 343 1 26 31 15 7 4 360 354 349 353 1 7 2 4 1 352 348 343 333 330 331 331 326 319 314 314 306
325 321 323 325 328 329 333 337 337 333 334 336 336 339 342 340 3 23 24 17 3 358 354 351 352 350 358 3 358 359 357 358 359 354 335 332 327 328 324 320 321 320 299
323 319 319 322 323 323 328 332 328 323 328 329 328 334 338 341 355 18 23 12 359 354 349 346 344 342 347 15 358 349 352 353 352 350 342 333 330 325 319 307 300 297 281
320 316 313 313 317 321 325 324 318 320 320 323 327 330 335 334 346 9 29 3 2 350 350 353 350 348 356 13 5 350 353 353 353 355 357 356 354 349 354 338 324 298 278
309 306 306 308 314 313 314 313 312 314 320 327 327 327 325 323 339 358 25 19 7 355 349 348 352 7 5 10 10 355 358 357 347 345 350 351 349 347 1 357 332 316 310
300 303 305 308 308 304 312 308 312 320 323 318 316 317 315 327 338 347 6 27 21 2 354 351 350 8 9 10 12 6 5 5 348 346 346 348 349 350 349 344 327 300 292
303 305 306 306 307 320 315 308 310 313 314 310 308 314 317 319 333 338 356 5 18 13 351 346 355 9 11 10 11 11 9 7 357 355 357 358 355 351 343 334 323 303 277
309 306 304 306 304 307 306 304 309 308 308 310 312 319 321 321 322 332 345 354 360 11 355 -0 5 9 10 5 8 12 9 3 1 0 359 354 347 339 338 338 339 334 329
304 305 304 305 306 309 310 308 308 307 306 306 317 320 316 314 310 312 311 329 346 356 1 356 2 4 9 8 8 6 5 4 5 358 353 347 346 351 360 359 358 356 6
301 302 307 309 305 308 313 307 309 301 315 333 327 314 319 317 326 344 352 339 335 341 4 357 353 354 1 2 3 4 3 3 3 358 357 355 358 1 3 3 6 13 26
301 309 309 308 311 316 315 317 322 329 332 339 341 342 331 333 343 353 352 354 352 353 8 349 344 348 353 356 359 359 1 3 360 358 359 359 1 2 4 7 14 20 26
280 298 302 310 315 319 323 326 326 330 336 341 345 345 344 347 355 357 359 0 357 359 3 328 325 330 335 343 347 350 353 353 354 358 1 360 0 3 8 11 16 20 23
275 295 306 298 304 309 313 318 323 328 330 332 338 343 347 352 356 358 2 1 348 350 326 312 310 312 317 326 336 342 344 350 356 358 360 0 1 5 10 13 17 23 23
276 280 285 293 304 308 311 317 323 327 328 329 331 338 345 350 354 356 1 354 338 336 328 316 304 300 299 306 318 329 337 346 354 355 360 0 0 4 10 13 16 24 33
264 300 318 323 320 318 318 323 329 330 330 331 334 332 333 349 349 347 349 343 340 334 328 321 310 296 289 285 294 312 330 344 355 358 357 359 359 4 9 13 18 22 28
244 288 318 327 311 305 305 314 318 321 323 327 329 330 348 354 343 340 340 340 338 334 330 322 312 301 284 266 256 268 293 319 343 354 357 359 2 6 5 12 19 25 31
216 240 272 290 296 301 310 314 313 313 318 324 326 331 346 349 338 337 335 333 331 328 325 321 311 297 275 254 239 230 234 253 281 343 1 5 9 11 11 17 22 30 36
198 223 254 276 285 313 330 314 313 315 320 322 325 334 339 339 336 333 331 329 327 325 324 321 315 304 283 253 228 214 212 214 201 175 139 43 27 23 24 25 26 33 42
191 207 228 257 277 293 305 310 314 319 322 322 326 331 333 332 329 328 328 325 325 323 322 321 316 307 297 279 238 214 207 199 178 169 159 134 93 53 43 40 38 38 41
188 200 212 229 255 280 296 305 312 317 322 324 328 330 328 325 325 325 325 323 324 323 322 321 318 316 308 293 262 223 216 210 194 169 154 144 130 106 82 64 57 54 54
189 197 204 213 230 250 271 290 303 311 314 319 324 322 320 320 321 321 322 324 326 323 321 320 317 317 313 302 272 242 224 210 198 181 157 148 144 137 121 97 89 77 72